Weather History for Morgantown, WV

Change the Weather History Date:

Thursday, February 7, 2013

  Actual Average Record
Temperature  
Mean Temperature 33 °F 33 °F  
Max Temperature 44 °F 41 °F 62 °F (2005)
Min Temperature 22 °F 25 °F -1 °F (1972)
Degree Days  
Heating Degree Days 32 32  
Month to date heating degree days 275 228  
Since 1 July heating degree days 3059 3255  
Cooling Degree Days 0 0  
Month to date cooling degree days 0 0  
Year to date cooling degree days 0 0  
Moisture  
Dew Point 26 °F    
Average Humidity 79    
Maximum Humidity 100    
Minimum Humidity 57    
Precipitation  
Precipitation 0.00 in 0.09 in 0.79 in (1999)
Month to date precipitation 0.04 0.63  
Year to date precipitation 3.18 3.44  
Sea Level Pressure  
Sea Level Pressure 30.18 in    
Wind  
Wind Speed 5 mph (ESE)    
Max Wind Speed 14 mph    
Max Gust Speed 18 mph    
Visibility 9 miles    
Events      
T = Trace of Precipitation, MM = Missing Value Source: NWS Daily Summary

Daily Weather History Graph

Daily Weather History Graph

Search for Another Location

Airport:

Trip Planner

Search our weather history database for the weather conditions in past years. The results will help you decide how hot, cold, wet, or windy it might be!

Date:

Astronomy

Feb. 07, 2013 Rise Set
Actual Time 7:21 AM EST 5:47 PM EST
Civil Twilight 6:53 AM EST 6:15 PM EST
Nautical Twilight 6:21 AM EST 6:47 PM EST
Astronomical Twilight 5:49 AM EST 7:18 PM EST
Moon 4:58 AM EST (2/7) 3:09 PM EST (2/7)
Length of Visible Light 11h 22m
Length of Day
10h 25m
Waning Crescent, 9% of the Moon is Illuminated
Feb 7
Waning Crescent
Feb 10
New
Feb 17
First Quarter
Feb 25
Full
Mar 4
Last Quarter

Hourly Weather History & Observations

Time (EST) Temp. Windchill Dew Point Humidity Pressure Visibility Wind Dir Wind Speed Gust Speed Precip Events Conditions
12:53 AM 24.1 °F - 21.9 °F 91% 30.32 in 3.0 mi Calm Calm - N/A   Clear
1:53 AM 23.0 °F - 21.9 °F 96% 30.31 in 4.0 mi Calm Calm - N/A   Clear
2:53 AM 25.0 °F 20.7 °F 23.0 °F 92% 30.27 in 7.0 mi ENE 3.5 mph - N/A   Clear
3:53 AM 27.0 °F - 23.0 °F 85% 30.25 in 9.0 mi Calm Calm - N/A   Clear
4:53 AM 26.1 °F - 24.1 °F 92% 30.26 in 8.0 mi Calm Calm - N/A   Clear
5:53 AM 27.0 °F 23.0 °F 23.0 °F 85% 30.28 in 9.0 mi Variable 3.5 mph - N/A   Clear
6:53 AM 25.0 °F 20.7 °F 23.0 °F 92% 30.30 in 7.0 mi North 3.5 mph - N/A   Clear
7:53 AM 28.0 °F - 23.0 °F 81% 30.30 in 8.0 mi Calm Calm - N/A   Overcast
8:53 AM 28.9 °F - 25.0 °F 85% 30.29 in 7.0 mi Calm Calm - N/A   Mostly Cloudy
9:53 AM 33.1 °F - 26.1 °F 75% 30.27 in 10.0 mi Calm Calm - N/A   Overcast
10:53 AM 36.0 °F 33.3 °F 26.1 °F 67% 30.25 in 10.0 mi SSE 3.5 mph - 0.02 in   Overcast
11:53 AM 37.0 °F 33.3 °F 27.0 °F 67% 30.22 in 10.0 mi East 4.6 mph - 0.01 in   Overcast
12:53 PM 39.9 °F 36.7 °F 27.0 °F 60% 30.17 in 10.0 mi ESE 4.6 mph - N/A   Mostly Cloudy
1:53 PM 42.1 °F 38.4 °F 28.0 °F 58% 30.14 in 10.0 mi ENE 5.8 mph - N/A   Clear
2:53 PM 43.0 °F 39.5 °F 28.0 °F 56% 30.12 in 10.0 mi East 5.8 mph - N/A   Mostly Cloudy
3:53 PM 43.0 °F 38.2 °F 28.9 °F 58% 30.11 in 10.0 mi ESE 8.1 mph - N/A   Overcast
4:53 PM 42.1 °F 36.6 °F 28.9 °F 60% 30.09 in 10.0 mi ESE 9.2 mph - N/A   Scattered Clouds
5:53 PM 39.9 °F 35.1 °F 28.9 °F 65% 30.10 in 10.0 mi East 6.9 mph - N/A   Clear
6:53 PM 37.9 °F 33.5 °F 28.0 °F 68% 30.09 in 10.0 mi Variable 5.8 mph - N/A   Clear
7:53 PM 37.9 °F 30.9 °F 28.9 °F 70% 30.07 in 10.0 mi ESE 10.4 mph - N/A   Clear
8:53 PM 39.0 °F 33.4 °F 28.9 °F 67% 30.06 in 10.0 mi SE 8.1 mph - N/A   Clear
9:53 PM 39.0 °F 33.4 °F 28.9 °F 67% 30.04 in 10.0 mi SE 8.1 mph - N/A   Clear
10:53 PM 39.0 °F 33.4 °F 30.0 °F 70% 30.01 in 10.0 mi SSE 8.1 mph - N/A   Clear
11:53 PM 39.0 °F 31.4 °F 30.9 °F 73% 29.99 in 10.0 mi SSE 12.7 mph 17.3 mph N/A   Clear